Regional Weather Roundup
Issued by NWS Grand Forks, ND

Home | Current Version | Previous Version | Text Only | Print | Product List | Glossary On
Versions: 1 2 3 4 5 6 7 8 9 10 11 12 13 14 15 16 17 18 19 20 21 22 23 24 25 26 27 28 29 30 31 32 33 34 35 36 37 38 39 40 41 42 43 44 45 46 47 48 49 50
000
ASUS43 KFGF 301031
RWRFGF
PRAIRIE TO PINES  WEATHER ROUNDUP
NATIONAL WEATHER SERVICE EASTERN NORTH DAKOTA/GRAND FORKS ND
500 AM CDT TUE AUG 30 2016

 **SATELLITE DATA USED TO AUGMENT SKY COVER AT AUTOMATED STATIONS**
 *****  WEATHER ACROSS EASTERN NORTH DAKOTA  *****

CITY           SKY/WX    TMP DP  RH WIND       PRES   REMARKS
GRAND FORKS    CLEAR     49  46  90 W5        30.23S
GRAND FRKS AFB CLEAR     51  48  90 CALM      30.24R
GRAND FRKS NWS   N/A     50 N/A N/A NW2         N/A
DEVILS LAKE    CLEAR     52  48  86 CALM      30.26S
FARGO          CLEAR     52  48  86 W5        30.23S
WAHPETON ARPT  MOSUNNY   50  46  87 NW5       30.23S
$$

 ***** WEATHER ACROSS CENTRAL AND WESTERN NORTH DAKOTA  *****

CITY           SKY/WX    TMP DP  RH WIND       PRES   REMARKS
BISMARCK       CLEAR     51  47  86 CALM      30.26S
MINOT          CLEAR     53  46  77 CALM      30.23S
JAMESTOWN      CLEAR     53  50  89 E3        30.25R
MINOT AFB      CLEAR     47  43  84 SW1       30.23R
GARRISON         N/A     48  45  89 E3        30.24F
WILLISTON      CLEAR     52  42  69 CALM      30.21S
DICKINSON      CLEAR     52  46  80 SE9       30.23F
HETTINGER      CLEAR     58  51  78 SE8       30.26F
$$

 *****  OTHER AIRPORT OBSERVATIONS IN OUR AREA  *****

CITY           SKY/WX    TMP DP  RH WIND       PRES   REMARKS
WALHALLA       FAIR      48  48 100 CALM      30.25R
GRAFTON AIRPOR FAIR      50  50 100 CALM      30.26R
VALLEY CITY AR FAIR      52  52 100 CALM      30.27S
CANDO          FAIR      46  46 100 CALM      30.28S
CAVALIER APRT  FAIR      52  48  87 W3        30.24S
GWINNER        FAIR      54  52  94 N6        30.25S
SHEYENNE NWR     N/A     56  50  80 NE3       29.95S
ROLLA          FAIR      48  45  87 NW7       30.27S
 ***** THE ABOVE OBSERVATIONS ARE NON NWS ARE NOT QUALITY
       CONTROLLED AND MAY MIS-REPORT RAIN FOR SNOW...
$$

  *****  WEATHER ACROSS NORTHERN MINNESOTA  *****

CITY           SKY/WX    TMP DP  RH WIND       PRES   REMARKS
FLAG ISLAND    CLEAR     55  48  76 NW3       30.21S
WARROAD        CLEAR     46  43  87 SW2       30.23S
ROSEAU         CLEAR     46  43  87 CALM      30.24R
HALLOCK        CLEAR     46  45  93 CALM      30.24R
THF RVR FALLS  CLEAR     49  47  93 CALM      30.25R
BAUDETTE       CLEAR     49  49 100 CALM      30.22R
WASKISH        CLEAR     50  48  93 CALM      30.23S
CROOKSTON      CLEAR     52  50  93 CALM      30.24S
GREENBUSH NDAW   N/A     45  45 100 S2          N/A
$$
  *****  WEATHER ACROSS CENTRAL AND WEST MINNESOTA  *****

CITY           SKY/WX    TMP DP  RH WIND       PRES   REMARKS
FOSSTON        FOG       45  45 100 CALM      30.25S VSB 3/4
BEMIDJI          N/A     46  46 100 NW7       30.23F FOG
PARK RAPIDS    CLEAR     55  52  89 CALM      30.23R
ELBOW LAKE     FAIR      61  59  96 E3        30.22S
WADENA         CLEAR     55  54  94 N7        30.22S
DETROIT LAKES  CLEAR     59  55  88 CALM      30.25S
MOORHEAD       CLEAR     52  50  93 CALM      30.24S
FERGUS FALLS   CLEAR     59  59 100 NE5       30.24S
MORRIS MN      CLOUDY    61  59  94 NW6       30.20S
STAPLES        CLEAR     55  55 100 N3        30.21S
$$
  *****  WEATHER ELSEWHERE ACROSS MINNESOTA  *****

CITY           SKY/WX    TMP DP  RH WIND       PRES   REMARKS
DULUTH         CLOUDY    64  63  96 N13       30.15S
INTRNTL FALLS  CLEAR     45  45 100 CALM      30.21R
ELY            CLEAR     57  55  94 CALM      30.17S
CLOQUET        MOCLDY    63  59  88 NW6       30.17R
WHEATON        CLEAR     57  57 100 NW3       30.24S
BRAINERD       CLEAR     60  59  96 N7        30.20S
HIBBING        CLEAR     56  55  97 N5        30.19R
ALEXANDRIA     CLEAR     63  59  87 NE6       30.23R
SAINT CLOUD    CLOUDY    62  62 100 W5        30.17S
MINNEAPOLIS    CLOUDY    67  64  90 NW6       30.14S
$$

  *****  WEATHER ACROSS SOUTH DAKOTA  *****

CITY           SKY/WX    TMP DP  RH WIND       PRES   REMARKS
SIOUX FALLS    CLOUDY    68  66  93 CALM      30.19S
BROOKINGS      CLOUDY    68  64  87 NE8       30.21
WATERTOWN      CLOUDY    66  60  81 N3        30.23R
HURON          PTCLDY    70  68  93 E9        30.18R
SISSETON         N/A     55  53  93 NW3       30.22S
ABERDEEN       CLEAR     57  53  86 N7        30.23S
MITCHELL       MOCLDY    68  67  96 E5        30.18R
PIERRE         CLOUDY    64  58  80 NE10      30.17S
MOBRIDGE       CLEAR     59  52  77 CALM      30.21R
RAPID CITY     CLOUDY    66  63  90 NE3       30.25F
$$

  *****  SOME WEATHER IN NEARBY STATES *****

CITY           SKY/WX    TMP DP  RH WIND       PRES   REMARKS
GLASGOW MT     CLOUDY    61  44  53 E12       30.12F
GREAT FALLS MT PTCLDY    61  43  51 SE5       30.10S
CHEYENNE WY    CLOUDY    54  42  64 W7        30.37F
SCOTTSBLUFF NE CLOUDY    59  56  89 CALM      30.27S
OMAHA NE       CLOUDY    70  66  87 NE3       30.18R
DES MOINES IA  CLOUDY    72  70  93 E3        30.16F
DAVENPORT IA   LGT RAIN  70  68  93 N6        30.16S FOG
CHICAGO IL     CLOUDY    73  72  96 CALM      30.14S FOG
EAU CLAIRE WI  CLOUDY    67  63  87 SW8       30.08F
LA CROSSE WI   CLOUDY    73  71  93 CALM      30.15F FOG
$$

  *****  SOME NATIONAL WEATHER *****

CITY           SKY/WX    TMP DP  RH WIND       PRES   REMARKS
LA GUARDIA NY  PTCLDY    72  60  66 NE13      30.15S
RALEIGH NC     CLEAR     69  65  86 N3        30.09S
ATLANTA GA     CLEAR     74  68  81 NE8       30.08S
NEW ORLEANS LA PTCLDY    83  78  85 N7        29.92S HX  93
OKLAHOMA CITY  PTCLDY    72  69  90 CALM      30.10S
ALBUQUERQUE NM PTCLDY    64  52  64 E16       30.31S
SALT LAKE CITY FAIR      70  36  28 E6        30.12R
LOS ANGELES CA FAIR      69  61  75 W3        29.86S
BOISE ID       FAIR      71  31  22 NW5       29.98S
SEATTLE WA     MOCLDY    57  52  83 S7        30.06R
$$

*** WEATHER ACROSS MANITOBA...SASKATCHEWAN AND ONTARIO ***
                ***ONTARIO***

CITY           SKY/WX    TMP DP  RH WIND       PRES   REMARKS
GERALDTON      MOCLDY    63  59  88 NW5       30.04S
THUNDER BAY    CLEAR     59  57  94 SW5       30.08S
SIOUX LOOKOUT  CLEAR     46  46 100 VRB2      30.16R
TORONTO        PTCLDY    63  54  72 W3        30.16S
BIG TROUT LK   MOCLDY    57  52  82 W10       29.95F
PICKLE LAKE    NOT AVBL
DRYDEN         CLEAR     50  48  93 W9        30.19R
KENORA         CLEAR     55  50  82 W7        30.21R
$$
                *** MANITOBA***

CITY           SKY/WX    TMP DP  RH WIND       PRES   REMARKS
BRANDON        PTCLDY    45  43  93 NW6       30.26R
DAUPHIN        CLEAR     48  45  87 W8        30.24R
ISLAND LAKE    CLOUDY    57  52  82 W15G22    30.05R
PILOT MOUND      N/A     46  45  93 W2          N/A
THE PAS        CLEAR     50  45  81 W9        30.21R
THOMPSON       CLOUDY    52  50  93 W5        30.09R
WINNIPEG       CLEAR     48  46  93 W7        30.22R
LYNN LAKE      CLOUDY    50  48  93 MISG      30.17R
CHURCHILL      LGT RAIN  46  46 100 N24       30.02
GILLAM         CLOUDY    50  48  93 NW14      29.99R
$$
                ***SASKATCHEWAN***

CITY           SKY/WX    TMP DP  RH WIND       PRES   REMARKS
ESTEVAN        PTCLDY    52  43  71 E6        30.24R
KINDERSLEY     CLOUDY    54  46  76 E12       30.18F
LLOYDMINSTER   CLEAR     45  43  93 E7        30.26R
PRINCE ALBERT  CLEAR     39  37  93 CALM      30.27S
REGINA         PTCLDY    54  45  71 E7        30.24R
YORKTON        CLEAR     48  45  87 N2        30.26S
N. BATTLEFORD  CLEAR     45  45 100 E7        30.28S
LA RONGE       CLEAR     37  36  93 W3        30.29R
SASKATOON      CLEAR     46  45  93 NE7       30.28R
SWIFT CURRENT  MOCLDY    50  46  87 NE6       30.21R
$$
NOTE: THESE ARE AUTOMATED STATIONS WITH LIMITED QUALITY CONTROL
      "FAIR" INDICATES FEW OR NO CLOUDS BELOW 12,000 FEET WITH NO
      SIGNIFICANT WEATHER AND/OR OBSTRUCTIONS TO VISIBILITY.
      SKY/WX - SKY CONDITION AND SIGNIFICANT WEATHER.
      TMP - AIR TEMPERATURE.    DP   - DEWPOINT TEMPERATURE.
      RH  - RELATIVE HUMIDITY.  PRES - PRESSURE.
      HX  - HEAT INDEX.         WCI  - WIND CHILL INDEX.
$




USA.gov is the U.S. government's official web portal to all federal, state and local government web resources and services.